Weather History for Hazen, ND

Change the Weather History Date:

Friday, May 11, 2012

  Actual Average (KN60) Record (KN60)
Temperature  
Mean Temperature 46 °F -  
Max Temperature 59 °F 61 °F 65 °F (2008)
Min Temperature 33 °F 36 °F 25 °F (2005)
Degree Days  
Heating Degree Days 19    
Moisture  
Dew Point 27 °F    
Average Humidity 55    
Maximum Humidity 93    
Minimum Humidity 19    
Precipitation  
Precipitation 0.00 in - - ()
Sea Level Pressure  
Sea Level Pressure 30.17 in    
Wind  
Wind Speed 10 mph (WNW)    
Max Wind Speed 21 mph    
Max Gust Speed 28 mph    
Visibility 10 miles    
Events      
Averages and records for this station are not official NWS values.
T = Trace of Precipitation, MM = Missing Value Source: NWS Daily Summary

Daily Weather History Graph

Daily Weather History Graph

Search for Another Location

Airport:

Trip Planner

Search our weather history database for the weather conditions in past years. The results will help you decide how hot, cold, wet, or windy it might be!

Date:

Astronomy

May. 11, 2012 Rise Set
Actual Time 6:14 AM CDT 9:11 PM CDT
Civil Twilight 5:38 AM CDT 9:47 PM CDT
Nautical Twilight 4:52 AM CDT 10:33 PM CDT
Astronomical Twilight 3:57 AM CDT 11:29 PM CDT
Moon 1:49 AM CDT (5/11) 11:54 AM CDT (5/11)
Length of Visible Light 16h 08m
Length of Day
14h 57m
Waning Gibbous, 63% of the Moon is Illuminated
May 11
Waning Gibbous
May 12
Last Quarter
May 20
New
May 28
First Quarter
Jun 4
Full

Hourly Weather History & Observations

Time (CDT) Temp. Windchill Dew Point Humidity Pressure Visibility Wind Dir Wind Speed Gust Speed Precip Events Conditions
12:15 AM 42.8 °F 38.6 °F 37.4 °F 81% 30.00 in 10.0 mi WNW 6.9 mph - N/A   Clear
12:35 AM 42.8 °F 39.3 °F 37.4 °F 81% 30.01 in 10.0 mi WNW 5.8 mph - N/A   Mostly Cloudy
12:55 AM 44.6 °F 38.8 °F 37.4 °F 76% 30.02 in 10.0 mi WNW 11.5 mph - N/A   Overcast
1:15 AM 44.6 °F 39.2 °F 37.4 °F 76% 30.02 in 10.0 mi WNW 10.4 mph - N/A   Partly Cloudy
1:35 AM 42.8 °F 38.0 °F 37.4 °F 81% 30.02 in 10.0 mi WNW 8.1 mph - N/A   Partly Cloudy
1:55 AM 44.6 °F 38.4 °F 37.4 °F 76% 30.03 in 10.0 mi NW 12.7 mph 18.4 mph N/A   Mostly Cloudy
2:15 AM 44.6 °F 38.8 °F 37.4 °F 76% 30.04 in 10.0 mi NW 11.5 mph 17.3 mph N/A   Mostly Cloudy
2:35 AM 41.0 °F 33.9 °F 35.6 °F 81% 30.05 in 10.0 mi NNW 12.7 mph - N/A   Scattered Clouds
2:55 AM 41.0 °F 35.2 °F 35.6 °F 81% 30.06 in 10.0 mi NNW 9.2 mph - N/A   Scattered Clouds
3:15 AM 39.2 °F 34.2 °F 35.6 °F 87% 30.07 in 10.0 mi NW 6.9 mph - N/A   Clear
3:35 AM 39.2 °F 35.0 °F 35.6 °F 87% 30.08 in 10.0 mi WNW 5.8 mph - N/A   Clear
3:55 AM 39.2 °F 35.0 °F 35.6 °F 87% 30.08 in 10.0 mi WNW 5.8 mph - N/A   Clear
4:15 AM 37.4 °F 33.8 °F 35.6 °F 93% 30.09 in 10.0 mi WNW 4.6 mph - N/A   Clear
4:35 AM 35.6 °F 30.7 °F 32.0 °F 87% 30.09 in 10.0 mi West 5.8 mph - N/A   Clear
4:55 AM 35.6 °F 29.9 °F 33.8 °F 93% 30.10 in 10.0 mi WSW 6.9 mph - N/A   Clear
5:15 AM 35.6 °F 29.9 °F 32.0 °F 87% 30.11 in 10.0 mi West 6.9 mph - N/A   Clear
5:35 AM 33.8 °F 27.7 °F 32.0 °F 93% 30.11 in 10.0 mi WSW 6.9 mph - N/A   Clear
5:55 AM 33.8 °F 27.7 °F 32.0 °F 93% 30.13 in 10.0 mi SW 6.9 mph - N/A   Clear
6:15 AM 33.8 °F 26.4 °F 32.0 °F 93% 30.14 in 10.0 mi WSW 9.2 mph - N/A   Clear
6:35 AM 33.8 °F 26.4 °F 32.0 °F 93% 30.15 in 10.0 mi WSW 9.2 mph - N/A   Clear
6:55 AM 33.8 °F 27.0 °F 32.0 °F 93% 30.16 in 10.0 mi WSW 8.1 mph - N/A   Clear
7:15 AM 35.6 °F 28.0 °F 32.0 °F 87% 30.17 in 10.0 mi West 10.4 mph - N/A   Clear
7:35 AM 35.6 °F 28.0 °F 33.8 °F 93% 30.18 in 10.0 mi West 10.4 mph - N/A   Clear
7:55 AM 37.4 °F 30.3 °F 35.6 °F 93% 30.18 in 10.0 mi WSW 10.4 mph - N/A   Clear
8:15 AM 39.2 °F 33.0 °F 35.6 °F 87% 30.19 in 10.0 mi WSW 9.2 mph - N/A   Clear
8:35 AM 41.0 °F 33.5 °F 35.6 °F 81% 30.19 in 10.0 mi NW 13.8 mph 18.4 mph N/A   Clear
8:55 AM 44.6 °F 38.1 °F 35.6 °F 71% 30.19 in 10.0 mi WNW 13.8 mph 20.7 mph N/A   Clear
9:15 AM 44.6 °F 36.9 °F 32.0 °F 61% 30.20 in 10.0 mi WNW 18.4 mph 23.0 mph N/A   Clear
9:35 AM 46.4 °F 40.1 °F 33.8 °F 62% 30.20 in 10.0 mi NW 15.0 mph - N/A   Clear
9:55 AM 46.4 °F 39.8 °F 32.0 °F 57% 30.21 in 10.0 mi NW 16.1 mph 21.9 mph N/A   Clear
10:15 AM 48.2 °F - 32.0 °F 54% 30.21 in 10.0 mi NW 15.0 mph 20.7 mph N/A   Clear
10:35 AM 48.2 °F - 28.4 °F 46% 30.21 in 10.0 mi NW 17.3 mph 23.0 mph N/A   Clear
10:55 AM 48.2 °F - 28.4 °F 46% 30.22 in 10.0 mi WNW 16.1 mph 19.6 mph N/A   Clear
11:15 AM 50.0 °F - 28.4 °F 43% 30.23 in 10.0 mi NW 13.8 mph 19.6 mph N/A   Clear
11:35 AM 50.0 °F - 26.6 °F 40% 30.23 in 10.0 mi NW 12.7 mph 19.6 mph N/A   Clear
11:55 AM 51.8 °F - 23.0 °F 33% 30.23 in 10.0 mi NW 13.8 mph 19.6 mph N/A   Clear
12:15 PM 53.6 °F - 21.2 °F 28% 30.24 in 10.0 mi NW 15.0 mph 19.6 mph N/A   Clear
12:35 PM 53.6 °F - 21.2 °F 28% 30.24 in 10.0 mi NNW 20.7 mph 27.6 mph N/A   Clear
12:55 PM 53.6 °F - 19.4 °F 26% 30.24 in 10.0 mi NNW 15.0 mph 23.0 mph N/A   Clear
1:15 PM 55.4 °F - 19.4 °F 25% 30.24 in 10.0 mi NW 15.0 mph 21.9 mph N/A   Clear
1:35 PM 55.4 °F - 19.4 °F 25% 30.24 in 10.0 mi NW 12.7 mph 21.9 mph N/A   Clear
1:55 PM 55.4 °F - 21.2 °F 26% 30.23 in 10.0 mi NW 10.4 mph 18.4 mph N/A   Clear
2:15 PM 57.2 °F - 23.0 °F 27% 30.23 in 10.0 mi NW 17.3 mph 21.9 mph N/A   Clear
2:35 PM 57.2 °F - 19.4 °F 23% 30.23 in 10.0 mi WNW 12.7 mph 25.3 mph N/A   Clear
2:55 PM 57.2 °F - 19.4 °F 23% 30.22 in 10.0 mi NNW 12.7 mph 21.9 mph N/A   Clear
3:15 PM 57.2 °F - 17.6 °F 21% 30.22 in 10.0 mi West 13.8 mph 21.9 mph N/A   Clear
3:35 PM 57.2 °F - 17.6 °F 21% 30.22 in 10.0 mi West 13.8 mph 18.4 mph N/A   Clear
3:55 PM 59.0 °F - 17.6 °F 20% 30.21 in 10.0 mi NW 12.7 mph 23.0 mph N/A   Clear
4:15 PM 59.0 °F - 15.8 °F 19% 30.21 in 10.0 mi WNW 10.4 mph 21.9 mph N/A   Clear
4:35 PM 59.0 °F - 15.8 °F 19% 30.21 in 10.0 mi West 13.8 mph 19.6 mph N/A   Clear
4:55 PM 59.0 °F - 17.6 °F 20% 30.21 in 10.0 mi WNW 9.2 mph 27.6 mph N/A   Clear
5:15 PM 59.0 °F - 15.8 °F 19% 30.20 in 10.0 mi West 9.2 mph 21.9 mph N/A   Clear
5:35 PM 59.0 °F - 19.4 °F 22% 30.20 in 10.0 mi WNW 13.8 mph - N/A   Clear
5:55 PM 59.0 °F - 17.6 °F 20% 30.20 in 10.0 mi WNW 13.8 mph 20.7 mph N/A   Clear
6:15 PM 59.0 °F - 15.8 °F 19% 30.20 in 10.0 mi WNW 12.7 mph 18.4 mph N/A   Clear
6:35 PM 59.0 °F - 15.8 °F 19% 30.20 in 10.0 mi NW 10.4 mph - N/A   Clear
6:55 PM 59.0 °F - 17.6 °F 20% 30.20 in 10.0 mi WNW 10.4 mph 18.4 mph N/A   Clear
7:15 PM 59.0 °F - 19.4 °F 22% 30.20 in 10.0 mi WNW 9.2 mph - N/A   Clear
7:35 PM 59.0 °F - 17.6 °F 20% 30.20 in 10.0 mi WNW 17.3 mph - N/A   Clear
7:55 PM 57.2 °F - 17.6 °F 21% 30.20 in 10.0 mi WNW 11.5 mph - N/A   Clear
8:15 PM 55.4 °F - 19.4 °F 25% 30.20 in 10.0 mi West 8.1 mph - N/A   Clear
8:35 PM 53.6 °F - 23.0 °F 30% 30.20 in 10.0 mi WSW 5.8 mph - N/A   Clear
8:55 PM 50.0 °F - 26.6 °F 40% 30.20 in 10.0 mi SW 5.8 mph - N/A   Clear
9:15 PM 44.6 °F 41.4 °F 26.6 °F 49% 30.21 in 10.0 mi SSW 5.8 mph - N/A   Clear
9:55 PM 37.4 °F 31.4 °F 28.4 °F 70% 30.22 in 10.0 mi South 8.1 mph - N/A   Clear
10:15 PM 37.4 °F 31.4 °F 28.4 °F 70% 30.22 in 10.0 mi South 8.1 mph - N/A   Clear
10:35 PM 37.4 °F 31.4 °F 28.4 °F 70% 30.23 in 10.0 mi SSE 8.1 mph - N/A   Clear
10:55 PM 37.4 °F 32.1 °F 26.6 °F 65% 30.23 in 10.0 mi SSE 6.9 mph - N/A   Clear
11:15 PM 37.4 °F 34.9 °F 26.6 °F 65% 30.24 in 10.0 mi South 3.5 mph - N/A   Partly Cloudy
11:35 PM 39.2 °F - 24.8 °F 56% 30.24 in 10.0 mi Calm Calm - N/A   Partly Cloudy
11:55 PM 37.4 °F - 24.8 °F 60% 30.24 in 10.0 mi Calm Calm - N/A   Clear